This is the latest recevied weather packets stored in our database for station/object K5RWS. If no packets are shown the sender has not sent any weather packets the latest 10 day(s).
| Time | Temp. | Humidity | Pressure | Rain* | Wind** | Luminosity | Snow |
|---|---|---|---|---|---|---|---|
| 1777985332 | 13.33° C | 38% | 1014.2 hPa | 0 mm | - | 24 W/m² | - |
| 1777985029 | 13.33° C | 38% | 1014.5 hPa | 0 mm | - | 15 W/m² | - |
| 1777984725 | 13.33° C | 38% | 1014.6 hPa | 0 mm | - | 9 W/m² | - |
| 1777984422 | 13.33° C | 38% | 1014.6 hPa | 0 mm | - | 8 W/m² | - |
| 1777984117 | 13.33° C | 37% | 1014.6 hPa | 0 mm | - | 6 W/m² | - |
| 1777983815 | 13.33° C | 37% | 1014.3 hPa | 0 mm | - | 3 W/m² | - |
| 1777983512 | 13.33° C | 37% | 1014.2 hPa | 0 mm | - | 2 W/m² | - |
| 1777983209 | 13.89° C | 36% | 1014.2 hPa | 0 mm | - | 1 W/m² | - |
| 1777982905 | 13.89° C | 36% | 1014.2 hPa | 0 mm | - | 1 W/m² | - |
| 1777982601 | 13.89° C | 35% | 1014.1 hPa | 0 mm | - | 0 W/m² | - |
| 1777982300 | 13.89° C | 36% | 1014 hPa | 0 mm | - | 0 W/m² | - |
| 1777981997 | 13.89° C | 35% | 1014.1 hPa | 0 mm | - | 0 W/m² | - |
| 1777981695 | 13.89° C | 35% | 1014.3 hPa | 0 mm | - | 0 W/m² | - |
| 1777981391 | 13.89° C | 35% | 1014.2 hPa | 0 mm | - | 0 W/m² | - |
| 1777981088 | 13.89° C | 35% | 1014 hPa | 0 mm | - | 0 W/m² | - |
| 1777980784 | 13.89° C | 35% | 1014 hPa | 0 mm | - | 0 W/m² | - |
| 1777980480 | 13.89° C | 35% | 1014 hPa | 0 mm | - | 0 W/m² | - |
| 1777980178 | 13.89° C | 35% | 1014 hPa | 0 mm | - | 0 W/m² | - |
| 1777979878 | 14.44° C | 35% | 1013.9 hPa | 0 mm | - | 0 W/m² | - |
| 1777979574 | 13.89° C | 35% | 1014 hPa | 0 mm | - | 0 W/m² | - |
| 1777979270 | 13.89° C | 35% | 1013.9 hPa | 0 mm | - | 0 W/m² | - |
| 1777978968 | 14.44° C | 34% | 1014.2 hPa | 0 mm | - | 0 W/m² | - |
| 1777978664 | 14.44° C | 34% | 1014.1 hPa | 0 mm | - | 0 W/m² | - |
| 1777978360 | 14.44° C | 34% | 1014.3 hPa | 0 mm | - | 0 W/m² | - |
| 1777978057 | 14.44° C | 34% | 1014.5 hPa | 0 mm | - | 0 W/m² | - |
* Rain latest hour (hover to see other rain measurements)
** Current wind speed in m/s (hover to see current wind gust speed)